Todos
Dax-Seyresse Airport LFBY Condições meteorológicas
|
(LFBY)
Céu Limpo
Vento fraco |
|
24 °C |
LFBY Previsão da área de terminais
| Date | Time (CEST) | Flight Rules | Wind Dir. | Speed | Type | Height AGL (ft) | Visibility | Remarks | ||||||
|---|---|---|---|---|---|---|---|---|---|---|---|---|---|---|
Histórico recente de METAR LFBY
| Date | Time (CEST) | Flight Rules | Wind Dir. | Speed | Type | Height AGL (ft) | Visibility | Temp (°C) | Temp (°F) | Dew Point (°C) | Dew Point (°F) | Rel. Humid. | Pressure | Density Altitude | Remarks |
|---|---|---|---|---|---|---|---|---|---|---|---|---|---|---|---|
| 06-Set | 03:30 | VFR | Variable | 3 kt | 10000 meters | 24° | 75° | 16° | 60° | 61% | 1019 mb | 1.017 ft | |||
| 06-Set | 03:00 | VFR | Variable | 3 kt | 10000 meters | 23° | 73° | 16° | 60° | 65% | 1019 mb | 897 ft | |||
| 06-Set | 02:30 | VFR | Calm | 10000 meters | 23° | 73° | 16° | 60° | 65% | 1019 mb | 897 ft | ||||
| 06-Set | 02:00 | VFR | Variable | 3 kt | 10000 meters | 23° | 73° | 16° | 60° | 65% | 1019 mb | 897 ft | |||
| 06-Set | 01:30 | VFR | Variable | 3 kt | 10000 meters | 24° | 75° | 16° | 60° | 61% | 1020 mb | 987 ft | |||
| 06-Set | 01:00 | VFR | 210° | 2 kt | 10000 meters | 24° | 75° | 17° | 62° | 65% | 1020 mb | 987 ft | |||
| 06-Set | 00:30 | VFR | Variable | 2 kt | 10000 meters | 25° | 77° | 16° | 60° | 57% | 1020 mb | 1.107 ft | |||
| 06-Set | 00:00 | VFR | Variable | 2 kt | 10000 meters | 26° | 78° | 16° | 60° | 54% | 1019 mb | 1.257 ft | |||
| 05-Set | 23:30 | VFR | 50° | 3 kt | 10000 meters | 26° | 78° | 14° | 57° | 48% | 1019 mb | 1.257 ft | |||
| 05-Set | 23:00 | VFR | Variable | 3 kt | 10000 meters | 27° | 80° | 14° | 57° | 45% | 1019 mb | 1.377 ft | |||
| 05-Set | 22:30 | VFR | 60° | 5 kt | 10000 meters | 27° | 80° | 15° | 59° | 48% | 1019 mb | 1.377 ft | |||
| 05-Set | 22:00 | VFR | 70° | 5 kt | 10000 meters | 28° | 82° | 14° | 57° | 42% | 1019 mb | 1.497 ft | |||
| 05-Set | 21:30 | VFR | 70° | 6 kt | 10000 meters | 28° | 82° | 14° | 57° | 42% | 1019 mb | 1.497 ft | |||
| 05-Set | 21:00 | VFR | 50° | 4 kt | 10000 meters | 30° | 86° | 14° | 57° | 38% | 1019 mb | 1.737 ft | |||
| 05-Set | 20:30 | VFR | 50° | 5 kt | 10000 meters | 31° | 87° | 14° | 57° | 36% | 1019 mb | 1.857 ft | |||
| 05-Set | 20:00 | VFR | 60° | 7 kt | 10000 meters | 32° | 89° | 14° | 57° | 34% | 1019 mb | 1.977 ft | |||
| 05-Set | 19:30 | VFR | 50° | 7 kt | 10000 meters | 32° | 89° | 14° | 57° | 34% | 1019 mb | 1.977 ft | |||
| 05-Set | 19:00 | VFR | 70° | 9 kt | 10000 meters | 33° | 91° | 13° | 55° | 30% | 1019 mb | 2.097 ft | |||
| 05-Set | 18:30 | VFR | 70° | 10 kt | 10000 meters | 33° | 91° | 13° | 55° | 30% | 1019 mb | 2.097 ft | |||
| 05-Set | 18:00 | VFR | 60° | 10 kt | 10000 meters | 33° | 91° | 13° | 55° | 30% | 1019 mb | 2.097 ft | |||
| 05-Set | 17:30 | VFR | 60° | 7 kt | 10000 meters | 32° | 89° | 14° | 57° | 34% | 1020 mb | 1.947 ft | |||
| 05-Set | 17:00 | VFR | 70° | 9 kt | 10000 meters | 32° | 89° | 14° | 57° | 34% | 1020 mb | 1.947 ft | |||
| 05-Set | 16:30 | VFR | 70° | 9 kt | 10000 meters | 32° | 89° | 16° | 60° | 38% | 1020 mb | 1.947 ft | |||
| 05-Set | 16:00 | VFR | 50° | 6 kt | 10000 meters | 31° | 87° | 17° | 62° | 43% | 1021 mb | 1.798 ft |
Entrar
| Seu navegador não suporta. atualize seu navegador |
